CW3742 Weather Reports


time (UTC)temp
C
wind
direction
speed
KPH
gust
KPH
rain 1hr
cm
rain 24hr
cm
rain mn
cm
humidity
%
barometer
mb
20260902123016 24 203 6.4 12.9 0.00 0.00 0.00 83 995.6
20260902120017 23 203 6.4 12.9 0.00 0.00 0.00 85 995.5
20260902113017 23 180 6.4 11.3 0.00 0.00 0.00 84 995.3
20260902110057 23 180 6.4 12.9 0.00 0.00 0.00 83 995.3
20260902103017 24 180 8.0 12.9 0.00 0.00 0.00 82 995.4
20260902100016 24 180 6.4 12.9 0.00 0.00 0.00 80 995.5
20260902093017 25 180 6.4 9.7 0.00 0.00 0.00 79 995.5
20260902090038 25 203 6.4 11.3 0.00 0.00 0.00 77 995.3
20260902083016 25 203 8.0 14.5 0.00 0.00 0.00 76 995.1
20260902080017 26 203 9.7 19.3 0.00 0.00 0.00 74 994.7
20260902073019 26 203 8.0 12.9 0.00 0.00 0.00 74 994.7
20260902070037 25 203 6.4 11.3 0.00 0.00 0.00 75 994.8
20260902063037 26 180 6.4 12.9 0.00 0.00 0.00 75 995.1
20260902060017 26 180 6.4 9.7 0.00 0.00 0.00 74 995.1
20260902053017 26 180 4.8 8.0 0.00 0.00 0.00 71 995.3
20260902050016 27 203 6.4 11.3 0.00 0.00 0.00 71 995.4
20260902043016 27 203 6.4 9.7 0.00 0.00 0.00 72 995.3
20260902040016 27 180 6.4 11.3 0.00 0.00 0.00 73 995.3
20260902033017 27 180 6.4 9.7 0.00 0.00 0.00 72 995.2
20260902030036 28 158 6.4 11.3 0.00 0.00 0.00 71 995.0
20260902023017 28 158 6.4 9.7 0.00 0.00 0.00 69 994.9
20260902020016 28 180 6.4 9.7 0.00 0.00 0.00 70 994.8
20260902013017 28 158 6.4 11.3 0.00 0.00 0.00 70 994.5
20260902003017 31 158 4.8 9.7 0.00 0.00 0.00 63 994.3
20260902000017 32 203 4.8 9.7 0.00 0.00 0.00 63 994.4
20260901233017 33 203 6.4 11.3 0.00 0.00 0.00 60 994.6
20260901230017 34 203 6.4 12.9 0.00 0.00 0.00 57 994.5
20260901223037 35 203 6.4 16.1 0.00 0.00 0.00 51 994.6
20260901220017 36 203 9.7 17.7 0.00 0.00 0.00 51 994.7
20260901213017 36 203 11.3 19.3 0.00 0.00 0.00 49 994.7
20260901210016 36 225 9.7 17.7 0.00 0.00 0.00 50 994.9
20260901203017 35 225 8.0 19.3 0.00 0.00 0.00 52 995.1
20260901200017 35 225 11.3 22.5 0.00 0.00 0.00 51 995.3
20260901193057 35 225 14.5 24.1 0.00 0.00 0.00 51 995.6
20260901190057 33 225 14.5 24.1 0.00 0.00 0.00 56 995.8
20260901183017 33 225 12.9 25.7 0.00 0.00 0.00 56 995.9
20260901180017 33 225 11.3 20.9 0.00 0.00 0.00 58 996.2
20260901173017 33 225 11.3 22.5 0.00 0.00 0.00 59 996.3
20260901170018 32 225 12.9 24.1 0.00 0.00 0.00 57 996.6
20260901163017 32 225 12.9 24.1 0.00 0.00 0.00 59 996.6
20260901160017 31 225 12.9 24.1 0.00 0.00 0.00 63 996.7
20260901153037 30 225 11.3 24.1 0.00 0.00 0.00 65 996.8
20260901150017 29 225 9.7 19.3 0.00 0.00 0.00 67 997.0
20260901143017 28 203 9.7 16.1 0.00 0.00 0.00 71 996.8
20260901140019 27 225 9.7 16.1 0.00 0.00 0.00 75 996.7
20260901133017 26 203 9.7 16.1 0.00 0.00 0.00 80 996.8
20260901130059 24 203 6.4 14.5 0.00 0.00 0.00 85 996.7